DECAYED

METEOR 2-7 DEB, 28601 (Decayed)

Orbit data source: Space-Track

METEOR 2-7 DEB, 28601 was space debris in LEO originally from a launch on Thu, 14 May 1981 UTC launched from the Plesetsk Missile And Space Complex (PKMTR). Debris objects in space refer to the collection of defunct objects orbiting the Earth. Examples of debris include non-operational satellites, rocket bodies, and fragments generated from explosions, collisions, or faulty payload assembly.

Loading next visibility...
Identifier
28601, 1981-043K
Orbit
Decayed
Country
Flag of CISCIS
Related business
Manufacturer
Unknown
Mission
Decayed spacecraft
Bus & Motor
Unknown
Mass
Unknown
Launch date (UTC)
1981-05-14 (44 years ago)
Launch vehicle
Unknown
Launch site
Plesetsk Missile And Space Complex (PKMTR)
Object type
Payload
Rocket body
Debris
Shape & HBR
Unknown
Radar Cross Section
Small (<0.1 m²)

Expand to show TLE details & history
Last TLE update: 1 year ago

TLE from 1 year ago
0 METEOR 2-7 DEB
1 28601U 81043K   24096.87954368  .00017010  00000-0  33225-2 0  9990
2 28601  81.2462 298.0698 0035012 316.8036  43.0418 14.62445333 45679
Epoch: 2024-04-05T21:06Z
TLE epoch observation values (Epoch: 2024-04-05T21:06:32.573Z)
Latitude
-0.00004°
Longitude
146.77802°
Altitude
670.222 km
Speed
7.531 km/s
True Right ascension
19h 52m 16s
True Declination
0° 00' 00"
Sunlit
Object was in daylight at epoch
Visualization orbit readout
Latitude
Unknown
Longitude
Unknown
Altitude
Unknown
Speed
Unknown
Apparent Right ascension
Unknown
Apparent Declination
Unknown
Sunlit
N/A
Visualization observer readout
Local Sidereal Time
00:37:40
Azimuth
Unknown
Elevation
Unknown
Doppler factor
Unknown
Orbital elements
Apogee altitude
707.114 km
Perigee altitude
657.673 km
Semi-major axis
7,060.53 km
Eccentricity
0.0035
Inclination
81.2462°
RAAN
298.0698°
Arg. of periapsis
316.8036°
True anomaly
43.31651°
Mean anomaly
43.0418°
Eccentric anomaly
43.17907°
Mean motion
3.65837 °/min
Orbital period
98.4 mins
BSTAR
0.0033225
Loading maneuver chart data...
Computing Atmospheric mass density...
Loading historical data...
Loading historical data...
Loading historical data...
Loading historical data...
Loading historical data...
Loading historical data...
Loading historical data...

Documentation

Showing up to 5 results
|